Regional Weather Roundup
Issued by NWS Cleveland, OH

Home | Current Version | Previous Version | Graphics & Text | Print | Product List | Glossary On
Versions: 1 2 3 4 5 6 7 8 9 10 11 12 13 14 15 16 17 18 19 20 21 22 23 24 25 26 27 28 29 30 31 32 33 34 35 36 37 38 39 40 41 42 43 44 45 46 47 48 49 50
543
ASUS41 KCLE 260210
RWRCLE
OHIO REGIONAL WEATHER ROUNDUP
NATIONAL WEATHER SERVICE WILMINGTON, OH
1000 PM EDT SAT MAR 25 2017

NOTE: "FAIR" INDICATES FEW OR NO CLOUDS BELOW 12,000 FEET WITH NO
SIGNIFICANT WEATHER AND/OR OBSTRUCTIONS TO VISIBILITY.

OHZ001>008-015>018-024>027-034-035-043-044-260300-
   NORTHWEST OHIO

CITY           SKY/WX    TMP DP  RH WIND       PRES   REMARKS
DEFIANCE       CLOUDY    39  36  89 E14G21    30.10S
FINDLAY        FAIR      43  36  76 NE12      30.09R
TOLEDO EXPRESS CLOUDY    38  35  89 E16G24    30.13S
TOLEDO EXEC    CLOUDY    39  36  89 NE14      30.15S
LIMA           FAIR      50  45  83 NE15      30.06S
$$

OHZ009>014-019>023-028>033-038-089-260300-
   NORTHEAST OHIO

CITY           SKY/WX    TMP DP  RH WIND       PRES   REMARKS
CLE-HOPKINS    CLOUDY    43  36  76 NE7       30.16F
CLE-LAKEFRONT  FAIR      40  37  89 NE13      30.14S
CUY CO. ARPT   MOCLDY    46  39  76 E8        30.15S
LORAIN-ELYRIA  FAIR      41  35  79 E7        30.13F
ASHTABULA      FAIR      39  36  89 CALM      30.20S
AKRON-CANTON   CLOUDY    57  48  72 NE10      30.13S
WOOSTER        FAIR      57  49  74 E8        30.12S
MANSFIELD      FAIR      61  51  70 E12       30.10S
YOUNGSTOWN     MOCLDY    54  47  77 NE8       30.16F
$$

OHZ042-051>053-060>062-070>072-077>081-260300-
  SOUTHWEST OHIO

CITY           SKY/WX    TMP DP  RH WIND       PRES   REMARKS
CINC-COVINGTON MOCLDY    67  51  56 SE7       30.02S
CINC-LUNKEN    CLOUDY    66  51  58 SE5       30.03R
HAMILTON       FAIR      62  51  67 E3        30.03R
DAYTON         CLOUDY    64  49  57 SE10      30.04R
WRIGHT-PAT AFB MOCLDY    66  49  53 SE7       30.04R
DAYTON GENERAL FAIR      66  49  54 SE9       30.03R
WILMINGTON     FAIR      62  50  64 E7        30.05S
$$

OHZ036-037-039>041-045>050-054>059-063>069-073>076-082>088-260300-
  CENTRAL AND SOUTHEAST OHIO

CITY           SKY/WX    TMP DP  RH WIND       PRES   REMARKS
COLUMBUS       FAIR      65  50  58 SE5       30.06S
OSU AIRPORT    FAIR      66  51  58 SE6       30.06S
BOLTON FIELD   FAIR      63  50  63 SE3       30.07S
RICKENBACK AFB FAIR      59  50  72 SE3       30.06S
NEWARK         FAIR      56  49  77 CALM      30.08R
MARION         CLOUDY    57  51  80 E6        30.08R
LANCASTER      FAIR      55  49  80 CALM      30.08S
ZANESVILLE     FAIR      64  49  57 SE5       30.09S
NEW PHILLY     FAIR      62  51  67 CALM      30.12R
$$




USA.gov is the U.S. government's official web portal to all federal, state and local government web resources and services.